This demonstration page uses our WeatherBlox Daily Observations layout. Learn more.

Left ArrowRight Arrow

39.01783, -85.05884

Hourly Observations for February 17, 2019

Temp ( °F °C ) Dew Point ( °F °C ) Humidity (%) Winds ( mph kmh ) Pressure ( in mb ) Visibility ( mi km ) Precip ( " mm )
12:52 am 00:52 Partly Cloudy 26 -3.3 20 -6.7 78 78 ENE 12 19 29.97 1015 10 16 0.00 0.00
1:52 am 01:52 Cloudy 26 -3.3 20 -6.7 78 78 ENE 12 19 29.95 1014 10 16 0.00 0.00
2:52 am 02:52 Cloudy 27 -2.8 20 -6.7 75 75 ENE 12 19 29.93 1014 10 16 0.00 0.00
3:52 am 03:52 Cloudy 27 -2.8 20 -6.7 75 75 ENE 14 22 29.91 1013 10 16 0.00 0.00
4:52 am 04:52 Cloudy 26 -3.3 20 -6.7 78 78 E 13 20 29.86 1011 10 16 0.00 0.03
5:52 am 05:52 Cloudy 27 -2.8 20 -6.7 75 75 E 12 19 29.88 1012 10 16 0.00 0.00
6:52 am 06:52 Mostly Cloudy 28 -2.2 20 -6.7 72 72 ENE 10 17 29.86 1011 10 16 0.00 0.00
7:15 am 07:15 Cloudy 28 -2.2 20 -6.7 72 72 ENE 10 17 29.89 1012 10 16 0.00 0.00
7:52 am 07:52 Cloudy 28 -2.2 20 -6.7 72 72 NE 13 20 29.86 1011 10 16 0.00 0.00
8:52 am 08:52 Cloudy 29 -1.7 20 -6.7 69 69 ENE 13 20 29.87 1011 10 16 0.00 0.00
9:52 am 09:52 Cloudy 30 -1.1 21 -6.1 69 69 E 15 24 29.82 1010 10 16 0.00 0.00
10:52 am 10:52 Cloudy 31 -0.6 22 -5.6 69 69 E 10 17 29.82 1010 10 16 0.00 0.00
11:52 am 11:52 Cloudy 31 -0.6 23 -5 72 72 E 8 13 29.82 1010 9 14 0.00 0.00
12:15 pm 12:15 Cloudy with Light Rain 32 0 25 -3.9 75 75 ESE 7 11 29.84 1010 3 4 0.00 0.03
12:52 pm 12:52 Cloudy with Mist and Fog 31 -0.6 27 -2.8 85 85 Calm 29.81 1009 3 5 0.00 0.03
1:19 pm 13:19 Cloudy with Mist and Fog 31 -0.6 27 -2.8 85 85 E 5 7 29.80 1009 3 4 0.00 0.00
1:52 pm 13:52 Cloudy with Mist and Fog 31 -0.6 28 -2.2 89 89 ENE 5 7 29.75 1007 3 4 0.00 0.00
2:13 pm 14:13 Cloudy with Mist and Fog 31 -0.6 28 -2.2 89 89 NE 5 7 29.78 1008 2 3 0.00 0.00
2:52 pm 14:52 Cloudy with Mist and Fog 31 -0.6 29 -1.7 92 92 NNE 6 9 29.73 1007 1 2 0.00 0.00
3:19 pm 15:19 Cloudy with Mist and Fog 31 -0.6 29 -1.7 92 92 NE 6 9 29.76 1008 1 1 0.00 0.00
3:52 pm 15:52 Cloudy with Mist and Fog 32 0 29 -1.7 88 88 E 3 6 29.74 1007 1 1 0.00 0.00
4:52 pm 16:52 Cloudy with Mist and Fog 32 0 30 -1.1 92 92 Calm 29.74 1007 1 1 0.00 0.00
5:07 pm 17:07 Cloudy with Freezing Fog 32 0 30 -1.1 92 92 Calm 29.77 1008 1 2 0.00 0.00
5:37 pm 17:37 Cloudy with Freezing Fog 32 0 30 -1.1 92 92 SW 3 6 29.79 1009 1 1 0.00 0.00
5:52 pm 17:52 Cloudy with Freezing Fog 32 0 30 -1.1 92 92 Calm 29.76 1008 1 1 0.00 0.00
6:52 pm 18:52 Cloudy with Freezing Fog 32 0 31 -0.6 96 96 SW 3 6 29.77 1008 1 1 0.00 0.00
7:52 pm 19:52 Cloudy with Freezing Fog 32 0 31 -0.6 96 96 W 9 15 29.81 1010 1 1 0.00 0.00
8:18 pm 20:18 Cloudy with Mist and Fog 33 0.6 31 -0.6 92 92 W 10 17 29.84 1011 2 3 0.00 0.00
8:48 pm 20:48 Cloudy with Mist and Fog 34 1 30 -1 87 87 W 12 19 29.85 1011 6 10 0.00 0.00
8:52 pm 20:52 Cloudy with Mist and Fog 33 0.6 31 -0.6 92 92 W 12 19 29.84 1010 6 10 0.00 0.00
9:52 pm 21:52 Cloudy with Mist and Fog 33 0.6 30 -1.1 89 89 W 13 20 29.85 1011 6 10 0.00 0.00
10:52 pm 22:52 Cloudy 33 0.6 30 -1.1 89 89 W 14 22 29.88 1012 7 11 0.00 0.00
11:52 pm 23:52 Cloudy 33 0.6 30 -1.1 89 89 W 13 20 29.90 1012 7 11 0.00 0.00

Powered by AerisWeather